User: anonymous   Login
Location: Bowman Observatory
(41.0326°N, 73.6210°W)
Time: 07:11:54
(UTC-04:00)
Language:

Cosmos 2297 - Orbit

View from above orbital plane
View from above orbital plane
View from above satellite
View from above satellite

Ground track
Ground track

The orbit data is extracted from the following two-line orbital elements,

1 23404U 94077A   16211.50784871  .00000092  00000-0  73857-4 0  9996
2 23404  71.0101 248.4503 0017290 276.9159  82.9996 14.13470846118471
Epoch (UTC): 29 July 2016 12:11:18
Eccentricity: 0.0017290
inclination: 71.0101°
perigee height: 835 km
apogee height: 860 km
right ascension of ascending node: 248.4503°
argument of perigee: 276.9159°
revolutions per day: 14.13470846
mean anomaly at epoch: 82.9996°
orbit number at epoch: 11847

The dashed part of the orbit path shows where the satellite is in the earth's shadow,  

DLR